Terminal Aerodrome Forecast
Issued by NWS

Home | Current Version | Previous Version | Text Only | Print | Product List | Glossary On
Versions: 1 2 3 4 5 6 7 8 9 10 11 12 13 14 15 16 17 18 19
000
FTAK31 PAJN 272300 RRA
TAFAKT
TAF
PAKT 272346Z 2800/2824 31006KT P6SM SCT030 BKN060
     FM280600 VRB04KT P6SM VCFG SCT010 SCT100
     FM280900 15003KT 6SM BR SCT020 BKN100
     FM281500 15013G20KT P6SM SCT020 BKN100
     FM281900 15013G20KT P6SM -RA SCT012 BKN040
     FM282200 15015G25KT 4SM RA BR SCT008 BKN020
      AMD LTD TO CLD VIS AND WIND 2806/2815=

USA.gov is the U.S. government's official web portal to all federal, state and local government web resources and services.